User: anonymous   Login
Location: Unspecified
(0.0000°N, 0.0000°E)
Time: 23:06:17
(UTC+00:00)
Language:

SERVIS 2 - Orbit

View from above orbital plane
View from above orbital plane
View from above satellite
View from above satellite

Ground track
Ground track

The orbit is defined by the following mean orbital elements,

1 36588U          26145.47835887 +.00000000 +00000-0 +15287-3 0 00007
2 36588 100.4284 333.5197 0016938 328.5742  59.2620 13.16051739    00
Epoch (UTC): 25 May 2026 11:28:50
Eccentricity: 0.0016938
inclination: 100.4284°
perigee height: 1187 km
apogee height: 1213 km
right ascension of ascending node: 333.5197°
argument of perigee: 328.5742°
revolutions per day: 13.16051739
mean anomaly at epoch: 59.2620°

The dashed part of the orbit path shows where the satellite is in the earth's shadow,  

DLR